Weather observations for the past three days for
Valparaiso Porter County Municipal Airport
Imperial (Metric)
Date Time (cdt) Wind (mph) Vis. (mi.) Weather Sky Cond. Temperature (ºF) Relative Humidity Wind Chill (°F) Heat Index (°F) Pressure Precipitation (in)
Air Dwpt 6 hour altimeter (in) sea level (mb) 1 hr 3 hr 6 hr
Max. Min.
24 07:56 Calm 10.00 Fair CLR 72 64 76% 29.99 1015.1
24 06:56 NW 3 10.00 Fair CLR 68 63 68 62.1 84% 29.97 1014.4
24 05:56 W 5 10.00 Fair CLR 63 61 93% 29.96 1014.0
24 04:56 W 3 10.00 Fair CLR 63 60.1 90% 29.94 1013.4
24 03:56 W 5 10.00 Fair CLR 63 61 93% 29.92 1012.9
24 02:56 W 3 9.00 Fair CLR 63 62.1 97% 29.91 1012.6
24 01:56 W 3 10.00 Fair CLR 64 62.1 93% 29.91 1012.5
24 00:56 W 3 10.00 Fair CLR 64 62.1 72 64 93% 29.91 1012.4
23 23:56 W 3 10.00 Fair CLR 64 62.1 93% 29.91 1012.3
23 22:56 W 5 10.00 Fair CLR 64 62.1 93% 29.9 1012.2
23 21:56 W 5 10.00 Fair CLR 64.9 61 87% 29.89 1011.8
23 20:56 Calm 10.00 Fair CLR 66.9 62.1 84% 29.87 1011.0
23 19:56 N 5 10.00 Fair CLR 69.1 62.1 78% 29.86 1010.7
23 18:56 N 8 10.00 A Few Clouds FEW043 71.1 61 81 71.1 71% 29.86 1010.6
23 17:56 N 10 G 18 10.00 A Few Clouds FEW021 72 62.1 71% 29.85 1010.5
23 16:56 N 9 G 20 10.00 Overcast BKN017 OVC038 71.1 64 79% 29.85 1010.2
23 15:56 N 12 10.00 A Few Clouds FEW021 75.9 64.9 69% 78 29.82 1009.3
23 14:56 N 9 G 21 10.00 Mostly Cloudy FEW020 SCT038 BKN048 77 66 69% 79 29.81 1009.0
23 13:56 NW 8 G 18 10.00 Partly Cloudy SCT029 80.1 66 62% 82 29.8 1008.5
23 12:56 NW 9 G 18 10.00 Mostly Cloudy FEW023 SCT047 BKN060 79 66 79 70 65% 81 29.8 1008.4
23 11:56 NW 8 10.00 Overcast SCT021 BKN033 OVC050 75.9 66.9 74% 77 29.8 1008.3
23 10:56 NW 7 10.00 Light Rain FEW020 BKN027 OVC039 72 66.9 84% 29.78 1007.9
23 09:56 NW 8 10.00 Overcast FEW023 OVC039 73 66 79% 29.77 1007.4
23 08:56 NW 9 G 17 10.00 Overcast BKN017 OVC022 73 66.9 81% 29.76 1007.2
23 07:56 N 7 10.00 Mostly Cloudy BKN014 BKN021 BKN035 72 68 87% 29.74 1006.6
23 06:56 Vrbl 5 10.00 Mostly Cloudy FEW028 BKN050 73 70 73 70 90% 29.72 1005.6 1.17
23 05:56 NW 12 6.00 Light Rain Fog/Mist BKN008 BKN015 OVC023 72 70 94% 29.71 1005.2 0.02
23 04:56 SW 8 10.00 Overcast BKN007 OVC013 73 71.1 94% 29.69 1004.7
23 03:56 SW 10 10.00 Mostly Cloudy FEW008 BKN016 BKN095 72 70 94% 29.7 1004.8 1.15
23 02:56 SW 13 10.00 Light Rain FEW010 SCT075 BKN120 71.1 69.1 94% 29.69 1004.8 0.34
23 01:56 SW 9 4.00 Thunderstorm in Vicinity Heavy Rain Fog/Mist SCT050 BKN080 OVC100 70 68 93% 29.75 1006.8 0.81
23 00:56 NW 18 G 32 10.00 Thunderstorm in Vicinity SCT015 BKN024 OVC060 73.9 68 89.1 73.9 82% 29.78 1007.8
22 23:56 SW 15 G 26 10.00 Overcast FEW050 BKN100 OVC120 82 63 53% 83 29.72 1005.5
22 22:56 SW 15 G 24 10.00 Fair CLR 82.9 63 51% 84 29.73 1005.9
22 21:56 SW 12 G 21 10.00 Mostly Cloudy FEW080 BKN120 84 62.1 48% 85 29.75 1006.6
22 20:56 SW 13 G 23 10.00 Overcast OVC120 84.9 62.1 46% 85 29.76 1007.1
22 19:56 SW 14 10.00 Fair CLR 86 64 48% 87 29.79 1007.9
22 18:56 SW 15 G 26 10.00 Fair CLR 89.1 64 93 89.1 43% 90 29.79 1007.9
22 17:56 SW 24 G 35 10.00 Fair and Breezy CLR 91 62.1 38% 92 29.83 1009.5
22 16:56 SW 22 G 37 10.00 Fair and Breezy CLR 91 63 39% 92 29.85 1009.9
22 15:56 SW 20 G 39 10.00 A Few Clouds FEW080 93 63 37% 94 29.87 1010.6
22 14:56 SW 17 G 26 10.00 Partly Cloudy FEW060 SCT075 90 64.9 44% 92 29.89 1011.3
22 13:56 SW 21 G 33 10.00 Partly Cloudy and Breezy SCT060 SCT075 90 64.9 44% 92 29.9 1011.8
22 12:56 SW 18 G 31 10.00 Partly Cloudy SCT055 91.9 64.9 91.9 75.9 41% 94 29.92 1012.6
22 11:56 SW 20 G 32 10.00 Mostly Cloudy SCT050 BKN060 90 64.9 44% 92 29.94 1013.1
22 10:56 SW 18 G 30 10.00 A Few Clouds FEW044 88 66.9 50% 91 29.96 1013.8
22 09:56 SW 16 G 28 10.00 Fair CLR 84.9 66.9 55% 88 29.99 1014.9
22 08:56 SW 13 G 24 10.00 Fair CLR 82.9 66.9 59% 86 30.01 1015.5
22 07:56 SW 13 10.00 Fair CLR 81 66 61% 83 30.02 1015.7
22 06:56 SW 8 10.00 Fair CLR 75.9 64.9 75.9 73 69% 78 30.03 1016.2
22 05:56 SW 8 10.00 Fair CLR 73.9 64.9 74% 30.04 1016.4
22 04:56 S 6 10.00 Fair CLR 73 64.9 76% 30.04 1016.6
22 03:56 S 6 10.00 Fair CLR 73.9 64.9 74% 30.05 1016.9
22 02:56 S 6 10.00 Fair CLR 73.9 64.9 74% 30.06 1017.2
22 01:56 S 6 10.00 Fair CLR 75 64.9 71% 77 30.07 1017.5
22 00:56 S 5 10.00 A Few Clouds FEW060 75.9 66 90 75 72% 77 30.07 1017.6
21 23:56 SW 3 10.00 Fair CLR 75 64.9 71% 77 30.08 1018.0
21 22:56 S 3 10.00 Fair CLR 79 64 60% 81 30.08 1017.9
21 21:56 S 5 10.00 Fair CLR 81 64 57% 83 30.09 1018.1
21 20:56 SW 5 10.00 Fair CLR 82.9 64 53% 84 30.08 1018.0
21 19:56 SW 8 10.00 Fair CLR 87.1 64 46% 88 30.09 1018.2
21 18:56 SW 9 10.00 Fair CLR 90 63 93 89.1 41% 91 30.1 1018.6
21 17:56 S 13 G 21 10.00 Fair CLR 91 63 39% 92 30.1 1018.5
21 16:56 SW 14 G 22 10.00 A Few Clouds FEW065 91.9 63 38% 93 30.1 1018.5
21 15:56 S 10 10.00 Partly Cloudy SCT065 91.9 63 38% 93 30.12 1019.3
21 14:56 SW 12 10.00 A Few Clouds FEW065 91.9 62.1 37% 93 30.15 1020.1
21 13:56 SW 10 10.00 Partly Cloudy SCT060 91 63 39% 92 30.17 1021.0
21 12:56 W 8 10.00 A Few Clouds FEW060 89.1 63 91.9 68 42% 90 30.19 1021.8
21 11:56 SW 8 10.00 A Few Clouds FEW055 89.1 64 43% 90 30.21 1022.3
21 10:56 W 8 10.00 Fair CLR 88 66 48% 90 30.22 1022.9
21 09:56 SW 7 10.00 Fair CLR 82.9 69.1 63% 87 30.24 1023.4
21 08:56 Calm 10.00 Fair CLR 78.1 68 71% 80 30.25 1023.8
Date Time (cdt) Wind (mph) Vis. (mi.) Weather Sky Cond. Air Dwpt Max. Min. Relative Humidity Wind Chill (°F) Heat Index (°F) altimeter (in) sea level (mb) 1 hr 3 hr 6 hr
6 hour
Temperature (ºF) Pressure Precipitation (in)